Voltar ao catálogo

DELTA 1 R/B

AtivoSSO
NORAD 10704·ROCKET BODY·🇺🇸 United States

Lançado Mar 5, 1978 de Vandenberg Space Force Base

Loading…

Próximas Passagens (próximas 24 horas)

TLE

AtualizadoSource: Space-Track

Época: Sep 14, 2026, 12:28 UTC

1 10704U 78026C   26257.52003489  .00000007  00000-0  38911-4 0  9991
2 10704  98.7858 103.8451 0073437  51.8334 308.9411 13.88273891309973

Acompanhe DELTA 1 R/B em tempo real com AllMySat

Download on the App Store